Year,Month,Day,Hour,Minute,Value (Times are PST for temperature in C)
2015,06,14,00,00,13.40
2015,06,14,00,01,13.40
2015,06,14,00,02,13.40
2015,06,14,00,03,13.30
2015,06,14,00,04,13.30
2015,06,14,00,05,13.30
2015,06,14,00,06,13.30
2015,06,14,00,07,13.30
2015,06,14,00,08,13.20
2015,06,14,00,09,13.20
2015,06,14,00,10,13.20
2015,06,14,00,11,13.20
2015,06,14,00,12,13.10
2015,06,14,00,13,13.10
2015,06,14,00,14,13.10
2015,06,14,00,15,13.10
2015,06,14,00,16,13.10
2015,06,14,00,17,13.10
2015,06,14,00,18,13.10
2015,06,14,00,19,13.10
2015,06,14,00,20,13.10
2015,06,14,00,21,13.10
2015,06,14,00,22,13.00
2015,06,14,00,23,13.00
2015,06,14,00,24,13.00
2015,06,14,00,25,13.00
2015,06,14,00,26,13.00
2015,06,14,00,27,13.00
2015,06,14,00,28,12.90
2015,06,14,00,29,12.90
2015,06,14,00,30,12.90
2015,06,14,00,31,12.90
2015,06,14,00,32,12.90
2015,06,14,00,33,12.90
2015,06,14,00,34,12.90
2015,06,14,00,35,12.90
2015,06,14,00,36,12.90
2015,06,14,00,37,12.90
2015,06,14,00,38,13.00
2015,06,14,00,39,13.00
2015,06,14,00,40,13.10
2015,06,14,00,41,13.10
2015,06,14,00,42,13.10
2015,06,14,00,43,13.10
2015,06,14,00,44,13.10
2015,06,14,00,45,13.10
2015,06,14,00,46,13.10
2015,06,14,00,47,13.10
2015,06,14,00,48,13.10
2015,06,14,00,49,13.10
2015,06,14,00,50,13.10
2015,06,14,00,51,13.10
2015,06,14,00,52,13.20
2015,06,14,00,53,13.20
2015,06,14,00,54,13.20
2015,06,14,00,55,13.20
2015,06,14,00,56,13.20
2015,06,14,00,57,13.20
2015,06,14,00,58,13.20
2015,06,14,00,59,13.20
2015,06,14,01,00,13.20
2015,06,14,01,01,13.20
2015,06,14,01,02,13.20
2015,06,14,01,03,13.20
2015,06,14,01,04,13.20
2015,06,14,01,05,13.20
2015,06,14,01,06,13.10
2015,06,14,01,07,13.10
2015,06,14,01,08,13.10
2015,06,14,01,09,13.10
2015,06,14,01,10,13.10
2015,06,14,01,11,13.00
2015,06,14,01,12,13.00
2015,06,14,01,13,13.00
2015,06,14,01,14,12.90
2015,06,14,01,15,12.90
2015,06,14,01,16,12.90
2015,06,14,01,17,12.90
2015,06,14,01,18,12.90
2015,06,14,01,19,12.80
2015,06,14,01,20,12.80
2015,06,14,01,21,12.80
2015,06,14,01,22,12.80
2015,06,14,01,23,12.80
2015,06,14,01,24,12.80
2015,06,14,01,25,12.80
2015,06,14,01,26,12.80
2015,06,14,01,27,12.80
2015,06,14,01,28,12.80
2015,06,14,01,29,12.80
2015,06,14,01,30,12.80
2015,06,14,01,31,12.70
2015,06,14,01,32,12.70
2015,06,14,01,33,12.70
2015,06,14,01,34,12.70
2015,06,14,01,35,12.70
2015,06,14,01,36,12.70
2015,06,14,01,37,12.70
2015,06,14,01,38,12.70
2015,06,14,01,39,12.70
2015,06,14,01,40,12.70
2015,06,14,01,41,12.70
2015,06,14,01,42,12.70
2015,06,14,01,43,12.70
2015,06,14,01,44,12.60
2015,06,14,01,45,12.60
2015,06,14,01,46,12.60
2015,06,14,01,47,12.60
2015,06,14,01,48,12.60
2015,06,14,01,49,12.60
2015,06,14,01,50,12.60
2015,06,14,01,51,12.50
2015,06,14,01,52,12.50
2015,06,14,01,53,12.50
2015,06,14,01,54,12.50
2015,06,14,01,55,12.40
2015,06,14,01,56,12.40
2015,06,14,01,57,12.40
2015,06,14,01,58,12.40
2015,06,14,01,59,12.40
2015,06,14,02,00,12.40
2015,06,14,02,01,12.40
2015,06,14,02,02,12.40
2015,06,14,02,03,12.40
2015,06,14,02,04,12.30
2015,06,14,02,05,12.30
2015,06,14,02,06,12.30
2015,06,14,02,07,12.30
2015,06,14,02,08,12.30
2015,06,14,02,09,12.30
2015,06,14,02,10,12.30
2015,06,14,02,11,12.30
2015,06,14,02,12,12.30
2015,06,14,02,13,12.20
2015,06,14,02,14,12.20
2015,06,14,02,15,12.20
2015,06,14,02,16,12.20
2015,06,14,02,17,12.20
2015,06,14,02,18,12.10
2015,06,14,02,19,12.10
2015,06,14,02,20,12.10
2015,06,14,02,21,12.10
2015,06,14,02,22,12.10
2015,06,14,02,23,12.00
2015,06,14,02,24,12.00
2015,06,14,02,25,12.00
2015,06,14,02,26,12.00
2015,06,14,02,27,12.00
2015,06,14,02,28,11.90
2015,06,14,02,29,11.90
2015,06,14,02,30,11.90
2015,06,14,02,31,11.90
2015,06,14,02,32,11.90
2015,06,14,02,33,11.90
2015,06,14,02,34,11.90
2015,06,14,02,35,11.90
2015,06,14,02,36,11.90
2015,06,14,02,37,11.90
2015,06,14,02,38,11.80
2015,06,14,02,39,11.80
2015,06,14,02,40,11.80
2015,06,14,02,41,11.80
2015,06,14,02,42,11.80
2015,06,14,02,43,11.80
2015,06,14,02,44,11.80
2015,06,14,02,45,11.80
2015,06,14,02,46,11.80
2015,06,14,02,47,11.70
2015,06,14,02,48,11.70
2015,06,14,02,49,11.70
2015,06,14,02,50,11.70
2015,06,14,02,51,11.70
2015,06,14,02,52,11.70
2015,06,14,02,53,11.70
2015,06,14,02,54,11.70
2015,06,14,02,55,11.60
2015,06,14,02,56,11.60
2015,06,14,02,57,11.60
2015,06,14,02,58,11.60
2015,06,14,02,59,11.50
2015,06,14,03,00,11.50
2015,06,14,03,01,11.50
2015,06,14,03,02,11.50
2015,06,14,03,06,11.40
2015,06,14,03,07,11.40
2015,06,14,03,08,11.40
2015,06,14,03,09,11.40
2015,06,14,03,10,11.30
2015,06,14,03,11,11.30
2015,06,14,03,12,11.30
2015,06,14,03,13,11.30
2015,06,14,03,14,11.30
2015,06,14,03,15,11.30
2015,06,14,03,16,11.20
2015,06,14,03,17,11.20
2015,06,14,03,18,11.20
2015,06,14,03,19,11.20
2015,06,14,03,20,11.20
2015,06,14,03,21,11.20
2015,06,14,03,22,11.20
2015,06,14,03,23,11.20
2015,06,14,03,24,11.20
2015,06,14,03,25,11.20
2015,06,14,03,26,11.20
2015,06,14,03,27,11.20
2015,06,14,03,28,11.20
2015,06,14,03,29,11.20
2015,06,14,03,30,11.20
2015,06,14,03,31,11.20
2015,06,14,03,32,11.20
2015,06,14,03,33,11.20
2015,06,14,03,34,11.20
2015,06,14,03,35,11.20
2015,06,14,03,36,11.20
2015,06,14,03,37,11.20
2015,06,14,03,38,11.10
2015,06,14,03,39,11.10
2015,06,14,03,40,11.10
2015,06,14,03,41,11.10
2015,06,14,03,42,11.10
2015,06,14,03,43,11.10
2015,06,14,03,44,11.00
2015,06,14,03,45,11.00
2015,06,14,03,46,11.00
2015,06,14,03,47,11.00
2015,06,14,03,48,11.00
2015,06,14,03,49,11.00
2015,06,14,03,50,11.00
2015,06,14,03,51,11.00
2015,06,14,03,52,11.00
2015,06,14,03,53,10.90
2015,06,14,03,54,10.90
2015,06,14,03,55,10.90
2015,06,14,03,56,10.90
2015,06,14,03,57,10.90
2015,06,14,03,58,10.90
2015,06,14,03,59,10.90
2015,06,14,04,00,10.90
2015,06,14,04,01,10.90
2015,06,14,04,02,10.90
2015,06,14,04,03,10.90
2015,06,14,04,04,10.90
2015,06,14,04,05,10.90
2015,06,14,04,06,10.90
2015,06,14,04,07,10.80
2015,06,14,04,08,10.80
2015,06,14,04,09,10.80
2015,06,14,04,10,10.80
2015,06,14,04,11,10.80
2015,06,14,04,12,10.80
2015,06,14,04,13,10.80
2015,06,14,04,14,10.80
2015,06,14,04,15,10.80
2015,06,14,04,16,10.80
2015,06,14,04,17,10.80
2015,06,14,04,18,10.80
2015,06,14,04,19,10.80
2015,06,14,04,20,10.80
2015,06,14,04,21,10.80
2015,06,14,04,22,10.80
2015,06,14,04,23,10.80
2015,06,14,04,24,10.80
2015,06,14,04,25,10.80
2015,06,14,04,26,10.70
2015,06,14,04,27,10.70
2015,06,14,04,28,10.70
2015,06,14,04,29,10.70
2015,06,14,04,30,10.70
2015,06,14,04,31,10.70
2015,06,14,04,32,10.60
2015,06,14,04,33,10.60
2015,06,14,04,34,10.60
2015,06,14,04,35,10.50
2015,06,14,04,36,10.50
2015,06,14,04,37,10.50
2015,06,14,04,38,10.40
2015,06,14,04,39,10.40
2015,06,14,04,40,10.30
2015,06,14,04,41,10.30
2015,06,14,04,42,10.30
2015,06,14,04,43,10.30
2015,06,14,04,44,10.20
2015,06,14,04,45,10.20
2015,06,14,04,46,10.20
2015,06,14,04,47,10.20
2015,06,14,04,48,10.20
2015,06,14,04,49,10.20
2015,06,14,04,50,10.10
2015,06,14,04,51,10.10
2015,06,14,04,52,10.10
2015,06,14,04,53,10.10
2015,06,14,04,54,10.10
2015,06,14,04,55,10.10
2015,06,14,04,56,10.10
2015,06,14,04,57,10.10
2015,06,14,04,58,10.10
2015,06,14,04,59,10.00
2015,06,14,05,00,10.00
2015,06,14,05,01,10.00
2015,06,14,05,02,10.00
2015,06,14,05,03,10.00
2015,06,14,05,04,9.90
2015,06,14,05,05,9.90
2015,06,14,05,06,9.90
2015,06,14,05,07,9.90
2015,06,14,05,08,9.90
2015,06,14,05,09,9.90
2015,06,14,05,10,9.90
2015,06,14,05,11,9.90
2015,06,14,05,12,9.90
2015,06,14,05,13,9.90
2015,06,14,05,14,9.80
2015,06,14,05,15,9.80
2015,06,14,05,16,9.90
2015,06,14,05,17,9.80
2015,06,14,05,18,9.80
2015,06,14,05,19,9.80
2015,06,14,05,20,9.80
2015,06,14,05,21,9.80
2015,06,14,05,22,9.80
2015,06,14,05,23,9.80
2015,06,14,05,24,9.80
2015,06,14,05,25,9.80
2015,06,14,05,26,9.80
2015,06,14,05,27,9.80
2015,06,14,05,28,9.80
2015,06,14,05,29,9.80
2015,06,14,05,30,9.80
2015,06,14,05,31,9.80
2015,06,14,05,32,9.80
2015,06,14,05,33,9.80
2015,06,14,05,34,9.80
2015,06,14,05,35,9.80
2015,06,14,05,36,9.80
2015,06,14,05,37,9.80
2015,06,14,05,38,9.80
2015,06,14,05,39,9.80
2015,06,14,05,40,9.80
2015,06,14,05,41,9.70
2015,06,14,05,42,9.70
2015,06,14,05,43,9.70
2015,06,14,05,44,9.70
2015,06,14,05,45,9.70
2015,06,14,05,46,9.70
2015,06,14,05,47,9.70
2015,06,14,05,48,9.70
2015,06,14,05,49,9.70
2015,06,14,05,50,9.70
2015,06,14,05,51,9.70
2015,06,14,05,52,9.60
2015,06,14,05,53,9.60
2015,06,14,05,54,9.60
2015,06,14,05,55,9.60
2015,06,14,05,56,9.60
2015,06,14,05,57,9.60
2015,06,14,05,58,9.60
2015,06,14,05,59,9.60
2015,06,14,06,00,9.60
2015,06,14,06,01,9.60
2015,06,14,06,02,9.60
2015,06,14,06,03,9.60
2015,06,14,06,04,9.60
2015,06,14,06,05,9.60
2015,06,14,06,06,9.60
2015,06,14,06,07,9.60
2015,06,14,06,08,9.60
2015,06,14,06,09,9.60
2015,06,14,06,10,9.60
2015,06,14,06,11,9.70
2015,06,14,06,12,9.70
2015,06,14,06,13,9.70
2015,06,14,06,14,9.70
2015,06,14,06,15,9.70
2015,06,14,06,16,9.70
2015,06,14,06,17,9.70
2015,06,14,06,18,9.70
2015,06,14,06,19,9.70
2015,06,14,06,20,9.70
2015,06,14,06,21,9.70
2015,06,14,06,22,9.70
2015,06,14,06,23,9.70
2015,06,14,06,24,9.80
2015,06,14,06,25,9.70
2015,06,14,06,26,9.70
2015,06,14,06,27,9.80
2015,06,14,06,28,9.80
2015,06,14,06,29,9.80
2015,06,14,06,30,9.80
2015,06,14,06,31,9.90
2015,06,14,06,32,9.90
2015,06,14,06,33,10.00
2015,06,14,06,34,10.10
2015,06,14,06,35,10.10
2015,06,14,06,36,10.20
2015,06,14,06,37,10.30
2015,06,14,06,38,10.30
2015,06,14,06,39,10.40
2015,06,14,06,40,10.50
2015,06,14,06,41,10.50
2015,06,14,06,42,10.60
2015,06,14,06,43,10.60
2015,06,14,06,44,10.70
2015,06,14,06,45,10.80
2015,06,14,06,46,10.80
2015,06,14,06,47,10.90
2015,06,14,06,48,10.90
2015,06,14,06,49,10.90
2015,06,14,06,50,10.90
2015,06,14,06,51,11.00
2015,06,14,06,52,11.10
2015,06,14,06,53,11.10
2015,06,14,06,54,11.20
2015,06,14,06,55,11.20
2015,06,14,06,56,11.30
2015,06,14,06,57,11.30
2015,06,14,06,58,11.40
2015,06,14,06,59,11.40
2015,06,14,07,00,11.50
2015,06,14,07,01,11.60
2015,06,14,07,02,11.60
2015,06,14,07,03,11.70
2015,06,14,07,04,11.80
2015,06,14,07,05,11.80
2015,06,14,07,06,11.90
2015,06,14,07,07,12.00
2015,06,14,07,08,12.00
2015,06,14,07,09,12.10
2015,06,14,07,10,12.20
2015,06,14,07,11,12.30
2015,06,14,07,12,12.40
2015,06,14,07,13,12.40
2015,06,14,07,14,12.50
2015,06,14,07,15,12.60
2015,06,14,07,16,12.70
2015,06,14,07,17,12.70
2015,06,14,07,18,12.80
2015,06,14,07,19,12.80
2015,06,14,07,20,12.90
2015,06,14,07,21,12.90
2015,06,14,07,22,12.90
2015,06,14,07,23,12.90
2015,06,14,07,24,12.90
2015,06,14,07,25,13.00
2015,06,14,07,26,13.00
2015,06,14,07,27,13.10
2015,06,14,07,28,13.20
2015,06,14,07,29,13.30
2015,06,14,07,30,13.30
2015,06,14,07,31,13.30
2015,06,14,07,32,13.40
2015,06,14,07,33,13.40
2015,06,14,07,34,13.50
2015,06,14,07,35,13.60
2015,06,14,07,36,13.60
2015,06,14,07,37,13.60
2015,06,14,07,38,13.70
2015,06,14,07,39,13.70
2015,06,14,07,40,13.70
2015,06,14,07,41,13.80
2015,06,14,07,42,13.80
2015,06,14,07,43,13.80
2015,06,14,07,44,13.90
2015,06,14,07,45,13.90
2015,06,14,07,46,14.00
2015,06,14,07,47,14.00
2015,06,14,07,48,14.10
2015,06,14,07,49,14.10
2015,06,14,07,50,14.10
2015,06,14,07,51,14.20
2015,06,14,07,52,14.20
2015,06,14,07,53,14.20
2015,06,14,07,54,14.30
2015,06,14,07,55,14.30
2015,06,14,07,56,14.30
2015,06,14,07,57,14.40
2015,06,14,07,58,14.40
2015,06,14,07,59,14.40
2015,06,14,08,00,14.40
2015,06,14,08,01,14.40
2015,06,14,08,02,14.40
2015,06,14,08,03,14.40
2015,06,14,08,04,14.40
2015,06,14,08,05,14.50
2015,06,14,08,06,14.50
2015,06,14,08,07,14.50
2015,06,14,08,08,14.50
2015,06,14,08,09,14.60
2015,06,14,08,10,14.60
2015,06,14,08,11,14.70
2015,06,14,08,12,14.80
2015,06,14,08,13,14.90
2015,06,14,08,14,14.90
2015,06,14,08,15,15.00
2015,06,14,08,16,15.00
2015,06,14,08,17,15.10
2015,06,14,08,18,15.10
2015,06,14,08,19,15.10
2015,06,14,08,20,15.20
2015,06,14,08,21,15.20
2015,06,14,08,22,15.20
2015,06,14,08,23,15.30
2015,06,14,08,24,15.30
2015,06,14,08,25,15.30
2015,06,14,08,26,15.30
2015,06,14,08,27,15.30
2015,06,14,08,28,15.30
2015,06,14,08,29,15.40
2015,06,14,08,30,15.40
2015,06,14,08,31,15.40
2015,06,14,08,32,15.40
2015,06,14,08,33,15.40
2015,06,14,08,34,15.40
2015,06,14,08,35,15.40
2015,06,14,08,36,15.40
2015,06,14,08,37,15.40
2015,06,14,08,38,15.40
2015,06,14,08,39,15.40
2015,06,14,08,40,15.40
2015,06,14,08,41,15.50
2015,06,14,08,42,15.50
2015,06,14,08,43,15.50
2015,06,14,08,44,15.60
2015,06,14,08,45,15.60
2015,06,14,08,46,15.70
2015,06,14,08,47,15.70
2015,06,14,08,48,15.80
2015,06,14,08,49,15.90
2015,06,14,08,50,15.90
2015,06,14,08,51,16.00
2015,06,14,08,52,16.00
2015,06,14,08,53,16.10
2015,06,14,08,54,16.10
2015,06,14,08,55,16.10
2015,06,14,08,56,16.10
2015,06,14,08,57,16.10
2015,06,14,08,58,16.10
2015,06,14,08,59,16.20
2015,06,14,09,00,16.30
2015,06,14,09,01,16.40
2015,06,14,09,02,16.50
2015,06,14,09,03,16.60
2015,06,14,09,04,16.60
2015,06,14,09,05,16.70
2015,06,14,09,06,16.80
2015,06,14,09,07,16.90
2015,06,14,09,08,16.90
2015,06,14,09,09,16.90
2015,06,14,09,10,16.90
2015,06,14,09,11,17.00
2015,06,14,09,12,17.10
2015,06,14,09,13,17.10
2015,06,14,09,14,17.10
2015,06,14,09,15,17.10
2015,06,14,09,16,17.00
2015,06,14,09,17,17.00
2015,06,14,09,18,16.90
2015,06,14,09,19,16.80
2015,06,14,09,20,16.80
2015,06,14,09,21,16.80
2015,06,14,09,22,16.90
2015,06,14,09,23,16.90
2015,06,14,09,24,16.90
2015,06,14,09,25,16.90
2015,06,14,09,26,16.90
2015,06,14,09,27,17.00
2015,06,14,09,28,17.10
2015,06,14,09,29,17.10
2015,06,14,09,30,17.20
2015,06,14,09,31,17.30
2015,06,14,09,32,17.30
2015,06,14,09,33,17.30
2015,06,14,09,34,17.30
2015,06,14,09,35,17.30
2015,06,14,09,36,17.30
2015,06,14,09,37,17.30
2015,06,14,09,38,17.40
2015,06,14,09,39,17.40
2015,06,14,09,40,17.50
2015,06,14,09,41,17.60
2015,06,14,09,42,17.70
2015,06,14,09,43,17.80
2015,06,14,09,44,17.80
2015,06,14,09,45,17.90
2015,06,14,09,46,17.90
2015,06,14,09,47,17.90
2015,06,14,09,48,17.90
2015,06,14,09,49,17.90
2015,06,14,09,50,18.00
2015,06,14,09,51,18.10
2015,06,14,09,52,18.10
2015,06,14,09,53,18.20
2015,06,14,09,54,18.20
2015,06,14,09,55,18.20
2015,06,14,09,56,18.20
2015,06,14,09,57,18.20
2015,06,14,09,58,18.20
2015,06,14,09,59,18.20
2015,06,14,10,00,18.20
2015,06,14,10,01,18.30
2015,06,14,10,02,18.40
2015,06,14,10,03,18.40
2015,06,14,10,04,18.50
2015,06,14,10,05,18.50
2015,06,14,10,06,18.60
2015,06,14,10,07,18.60
2015,06,14,10,08,18.70
2015,06,14,10,09,18.90
2015,06,14,10,10,18.90
2015,06,14,10,11,18.90
2015,06,14,10,12,18.90
2015,06,14,10,13,18.90
2015,06,14,10,14,18.90
2015,06,14,10,15,19.00
2015,06,14,10,16,19.00
2015,06,14,10,17,19.10
2015,06,14,10,18,19.20
2015,06,14,10,19,19.20
2015,06,14,10,20,19.20
2015,06,14,10,21,19.30
2015,06,14,10,22,19.30
2015,06,14,10,23,19.30
2015,06,14,10,24,19.30
2015,06,14,10,25,19.30
2015,06,14,10,26,19.40
2015,06,14,10,27,19.40
2015,06,14,10,28,19.50
2015,06,14,10,29,19.50
2015,06,14,10,30,19.60
2015,06,14,10,31,19.70
2015,06,14,10,32,19.70
2015,06,14,10,33,19.70
2015,06,14,10,34,19.80
2015,06,14,10,35,19.80
2015,06,14,10,36,20.00
2015,06,14,10,37,20.00
2015,06,14,10,38,20.10
2015,06,14,10,39,20.00
2015,06,14,10,40,20.00
2015,06,14,10,41,19.90
2015,06,14,10,42,19.90
2015,06,14,10,43,20.00
2015,06,14,10,44,20.10
2015,06,14,10,45,20.10
2015,06,14,10,46,20.10
2015,06,14,10,47,20.10
2015,06,14,10,48,20.20
2015,06,14,10,49,20.20
2015,06,14,10,50,20.30
2015,06,14,10,51,20.30
2015,06,14,10,52,20.30
2015,06,14,10,53,20.30
2015,06,14,10,54,20.40
2015,06,14,10,55,20.30
2015,06,14,10,56,20.30
2015,06,14,10,57,20.30
2015,06,14,10,58,20.30
2015,06,14,10,59,20.30
2015,06,14,11,00,20.30
2015,06,14,11,01,20.30
2015,06,14,11,02,20.40
2015,06,14,11,03,20.50
2015,06,14,11,04,20.50
2015,06,14,11,05,20.60
2015,06,14,11,06,20.70
2015,06,14,11,07,20.80
2015,06,14,11,08,20.90
2015,06,14,11,09,21.00
2015,06,14,11,10,21.00
2015,06,14,11,11,20.90
2015,06,14,11,12,20.90
2015,06,14,11,13,20.90
2015,06,14,11,14,20.90
2015,06,14,11,15,20.90
2015,06,14,11,16,20.90
2015,06,14,11,17,20.90
2015,06,14,11,18,20.90
2015,06,14,11,19,20.90
2015,06,14,11,20,21.00
2015,06,14,11,21,21.00
2015,06,14,11,22,21.00
2015,06,14,11,23,21.00
2015,06,14,11,24,21.00
2015,06,14,11,25,21.00
2015,06,14,11,26,21.00
2015,06,14,11,27,21.00
2015,06,14,11,28,21.10
2015,06,14,11,29,21.10
2015,06,14,11,30,21.10
2015,06,14,11,31,21.20
2015,06,14,11,32,21.20
2015,06,14,11,33,21.30
2015,06,14,11,34,21.40
2015,06,14,11,35,21.40
2015,06,14,11,36,21.40
2015,06,14,11,37,21.40
2015,06,14,11,38,21.50
2015,06,14,11,39,21.60
2015,06,14,11,40,21.70
2015,06,14,11,41,21.80
2015,06,14,11,42,21.80
2015,06,14,11,43,21.80
2015,06,14,11,44,22.00
2015,06,14,11,45,22.10
2015,06,14,11,46,22.20
2015,06,14,11,47,22.30
2015,06,14,11,48,22.40
2015,06,14,11,49,22.50
2015,06,14,11,50,22.60
2015,06,14,11,51,22.50
2015,06,14,11,52,22.40
2015,06,14,11,53,22.30
2015,06,14,11,54,22.20
2015,06,14,11,55,22.20
2015,06,14,11,56,22.20
2015,06,14,11,57,22.30
2015,06,14,11,58,22.30
2015,06,14,11,59,22.30
2015,06,14,12,00,22.40
2015,06,14,12,01,22.40
2015,06,14,12,02,22.50
2015,06,14,12,03,22.60
2015,06,14,12,04,22.80
2015,06,14,12,05,22.90
2015,06,14,12,06,23.00
2015,06,14,12,07,23.10
2015,06,14,12,08,23.10
2015,06,14,12,09,23.10
2015,06,14,12,10,23.20
2015,06,14,12,11,23.20
2015,06,14,12,12,23.30
2015,06,14,12,13,23.30
2015,06,14,12,14,23.30
2015,06,14,12,15,23.40
2015,06,14,12,16,23.40
2015,06,14,12,17,23.40
2015,06,14,12,18,23.30
2015,06,14,12,19,23.40
2015,06,14,12,20,23.50
2015,06,14,12,21,23.60
2015,06,14,12,22,23.60
2015,06,14,12,23,23.70
2015,06,14,12,24,23.80
2015,06,14,12,25,23.80
2015,06,14,12,26,23.80
2015,06,14,12,27,23.80
2015,06,14,12,28,23.80
2015,06,14,12,29,23.90
2015,06,14,12,30,24.00
2015,06,14,12,31,24.10
2015,06,14,12,32,24.20
2015,06,14,12,33,24.30
2015,06,14,12,34,24.40
2015,06,14,12,35,24.40
2015,06,14,12,36,24.60
2015,06,14,12,37,24.60
2015,06,14,12,38,24.50
2015,06,14,12,39,24.50
2015,06,14,12,40,24.50
2015,06,14,12,41,24.60
2015,06,14,12,42,24.70
2015,06,14,12,43,24.70
2015,06,14,12,44,24.70
2015,06,14,12,45,24.70
2015,06,14,12,46,24.70
2015,06,14,12,47,24.70
2015,06,14,12,48,24.70
2015,06,14,12,49,24.70
2015,06,14,12,50,24.60
2015,06,14,12,51,24.60
2015,06,14,12,52,24.60
2015,06,14,12,53,24.70
2015,06,14,12,54,24.70
2015,06,14,12,55,24.70
2015,06,14,12,56,24.70
2015,06,14,12,57,24.80
2015,06,14,12,58,24.80
2015,06,14,12,59,24.90
2015,06,14,13,00,24.90
2015,06,14,13,01,25.00
2015,06,14,13,02,25.10
2015,06,14,13,03,25.20
2015,06,14,13,04,25.20
2015,06,14,13,05,25.20
2015,06,14,13,06,25.10
2015,06,14,13,07,25.10
2015,06,14,13,08,25.10
2015,06,14,13,09,25.00
2015,06,14,13,10,24.90
2015,06,14,13,11,24.80
2015,06,14,13,12,24.80
2015,06,14,13,13,24.90
2015,06,14,13,14,25.00
2015,06,14,13,15,25.10
2015,06,14,13,16,25.20
2015,06,14,13,17,25.30
2015,06,14,13,18,25.30
2015,06,14,13,19,25.30
2015,06,14,13,20,25.20
2015,06,14,13,21,25.10
2015,06,14,13,22,25.10
2015,06,14,13,23,25.10
2015,06,14,13,24,25.00
2015,06,14,13,25,25.00
2015,06,14,13,26,25.10
2015,06,14,13,27,25.10
2015,06,14,13,28,25.20
2015,06,14,13,29,25.20
2015,06,14,13,30,25.30
2015,06,14,13,31,25.30
2015,06,14,13,32,25.30
2015,06,14,13,33,25.40
2015,06,14,13,34,25.50
2015,06,14,13,35,25.50
2015,06,14,13,36,25.40
2015,06,14,13,37,25.30
2015,06,14,13,38,25.20
2015,06,14,13,39,25.10
2015,06,14,13,40,25.10
2015,06,14,13,41,25.10
2015,06,14,13,42,25.10
2015,06,14,13,43,25.30
2015,06,14,13,44,25.40
2015,06,14,13,45,25.50
2015,06,14,13,46,25.50
2015,06,14,13,47,25.50
2015,06,14,13,48,25.50
2015,06,14,13,49,25.60
2015,06,14,13,50,25.60
2015,06,14,13,51,25.60
2015,06,14,13,52,25.60
2015,06,14,13,53,25.60
2015,06,14,13,54,25.60
2015,06,14,13,55,25.60
2015,06,14,13,56,25.70
2015,06,14,13,57,25.70
2015,06,14,13,58,25.70
2015,06,14,13,59,25.70
2015,06,14,14,00,25.70
2015,06,14,14,01,25.70
2015,06,14,14,02,25.70
2015,06,14,14,03,25.70
2015,06,14,14,04,25.70
2015,06,14,14,05,25.60
2015,06,14,14,06,25.60
2015,06,14,14,07,25.50
2015,06,14,14,08,25.40
2015,06,14,14,09,25.40
2015,06,14,14,10,25.40
2015,06,14,14,11,25.40
2015,06,14,14,12,25.40
2015,06,14,14,13,25.50
2015,06,14,14,14,25.50
2015,06,14,14,15,25.50
2015,06,14,14,16,25.60
2015,06,14,14,17,25.80
2015,06,14,14,18,25.80
2015,06,14,14,19,25.80
2015,06,14,14,20,25.80
2015,06,14,14,21,25.80
2015,06,14,14,22,25.80
2015,06,14,14,23,25.80
2015,06,14,14,24,25.80
2015,06,14,14,25,25.80
2015,06,14,14,26,25.80
2015,06,14,14,27,25.90
2015,06,14,14,28,25.90
2015,06,14,14,29,25.90
2015,06,14,14,30,25.90
2015,06,14,14,31,25.90
2015,06,14,14,32,26.00
2015,06,14,14,33,26.10
2015,06,14,14,34,26.00
2015,06,14,14,35,26.00
2015,06,14,14,36,26.10
2015,06,14,14,37,26.20
2015,06,14,14,38,26.20
2015,06,14,14,39,26.30
2015,06,14,14,40,26.30
2015,06,14,14,41,26.30
2015,06,14,14,42,26.30
2015,06,14,14,43,26.30
2015,06,14,14,44,26.30
2015,06,14,14,45,26.30
2015,06,14,14,46,26.20
2015,06,14,14,47,26.20
2015,06,14,14,48,26.20
2015,06,14,14,49,26.20
2015,06,14,14,50,26.30
2015,06,14,14,51,26.40
2015,06,14,14,52,26.30
2015,06,14,14,53,26.30
2015,06,14,14,54,26.20
2015,06,14,14,55,26.20
2015,06,14,14,56,26.30
2015,06,14,14,57,26.40
2015,06,14,14,58,26.40
2015,06,14,14,59,26.30
2015,06,14,15,00,26.20
2015,06,14,15,01,26.20
2015,06,14,15,02,26.20
2015,06,14,15,03,26.20
2015,06,14,15,04,26.30
2015,06,14,15,05,26.30
2015,06,14,15,06,26.40
2015,06,14,15,07,26.40
2015,06,14,15,08,26.50
2015,06,14,15,09,26.60
2015,06,14,15,10,26.60
2015,06,14,15,11,26.60
2015,06,14,15,12,26.60
2015,06,14,15,13,26.70
2015,06,14,15,14,26.70
2015,06,14,15,15,26.60
2015,06,14,15,16,26.50
2015,06,14,15,17,26.40
2015,06,14,15,18,26.30
2015,06,14,15,19,26.30
2015,06,14,15,20,26.20
2015,06,14,15,21,26.20
2015,06,14,15,22,26.30
2015,06,14,15,23,26.30
2015,06,14,15,24,26.40
2015,06,14,15,25,26.50
2015,06,14,15,26,26.60
2015,06,14,15,27,26.60
2015,06,14,15,28,26.60
2015,06,14,15,29,26.50
2015,06,14,15,30,26.40
2015,06,14,15,31,26.20
2015,06,14,15,32,26.20
2015,06,14,15,33,26.30
2015,06,14,15,34,26.30
2015,06,14,15,35,26.40
2015,06,14,15,36,26.40
2015,06,14,15,37,26.50
2015,06,14,15,38,26.50
2015,06,14,15,39,26.60
2015,06,14,15,40,26.60
2015,06,14,15,41,26.60
2015,06,14,15,42,26.70
2015,06,14,15,43,26.70
2015,06,14,15,44,26.60
2015,06,14,15,45,26.60
2015,06,14,15,46,26.50
2015,06,14,15,47,26.50
2015,06,14,15,48,26.50
2015,06,14,15,49,26.40
2015,06,14,15,50,26.40
2015,06,14,15,51,26.40
2015,06,14,15,52,26.50
2015,06,14,15,53,26.60
2015,06,14,15,54,26.60
2015,06,14,15,55,26.60
2015,06,14,15,56,26.70
2015,06,14,15,57,26.80
2015,06,14,15,58,26.80
2015,06,14,15,59,26.70
2015,06,14,16,00,26.60
2015,06,14,16,01,26.50
2015,06,14,16,02,26.40
2015,06,14,16,03,26.40
2015,06,14,16,04,26.30
2015,06,14,16,05,26.40
2015,06,14,16,06,26.30
2015,06,14,16,07,26.30
2015,06,14,16,08,26.30
2015,06,14,16,09,26.30
2015,06,14,16,10,26.40
2015,06,14,16,11,26.40
2015,06,14,16,12,26.50
2015,06,14,16,13,26.50
2015,06,14,16,14,26.60
2015,06,14,16,15,26.60
2015,06,14,16,16,26.50
2015,06,14,16,17,26.40
2015,06,14,16,18,26.30
2015,06,14,16,19,26.30
2015,06,14,16,20,26.30
2015,06,14,16,21,26.40
2015,06,14,16,22,26.40
2015,06,14,16,23,26.50
2015,06,14,16,24,26.70
2015,06,14,16,25,26.70
2015,06,14,16,26,26.80
2015,06,14,16,27,27.00
2015,06,14,16,28,27.00
2015,06,14,16,29,27.00
2015,06,14,16,30,26.90
2015,06,14,16,31,26.90
2015,06,14,16,32,26.90
2015,06,14,16,33,26.90
2015,06,14,16,34,26.90
2015,06,14,16,35,26.90
2015,06,14,16,36,26.90
2015,06,14,16,37,26.90
2015,06,14,16,38,27.00
2015,06,14,16,39,27.00
2015,06,14,16,40,26.90
2015,06,14,16,41,27.00
2015,06,14,16,42,27.00
2015,06,14,16,43,27.00
2015,06,14,16,44,26.90
2015,06,14,16,45,26.80
2015,06,14,16,46,26.70
2015,06,14,16,47,26.60
2015,06,14,16,48,26.60
2015,06,14,16,49,26.60
2015,06,14,16,50,26.60
2015,06,14,16,51,26.60
2015,06,14,16,52,26.60
2015,06,14,16,53,26.60
2015,06,14,16,54,26.70
2015,06,14,16,55,26.70
2015,06,14,16,56,26.60
2015,06,14,16,57,26.70
2015,06,14,16,58,26.70
2015,06,14,16,59,26.70
2015,06,14,17,00,26.70
2015,06,14,17,01,26.60
2015,06,14,17,02,26.60
2015,06,14,17,03,26.60
2015,06,14,17,04,26.60
2015,06,14,17,05,26.60
2015,06,14,17,06,26.60
2015,06,14,17,07,26.70
2015,06,14,17,08,26.80
2015,06,14,17,09,26.80
2015,06,14,17,10,26.80
2015,06,14,17,11,26.80
2015,06,14,17,12,26.80
2015,06,14,17,13,26.90
2015,06,14,17,14,26.90
2015,06,14,17,15,26.90
2015,06,14,17,16,26.90
2015,06,14,17,17,26.80
2015,06,14,17,18,26.70
2015,06,14,17,19,26.60
2015,06,14,17,20,26.60
2015,06,14,17,21,26.60
2015,06,14,17,22,26.60
2015,06,14,17,23,26.70
2015,06,14,17,24,26.70
2015,06,14,17,25,26.70
2015,06,14,17,26,26.70